This is the latest recevied weather packets stored in our database for station/object LX0WX-13. If no packets are shown the sender has not sent any weather packets the latest 10 day(s).
| Time | Temp. | Humidity | Pressure | Rain* | Wind** | Luminosity | Snow |
|---|---|---|---|---|---|---|---|
| 1777790160 | 15.56° C | 47% | 1009.9 hPa | 0 mm | - | - | - |
| 1777789860 | 15° C | 49% | 1009.8 hPa | 0 mm | - | - | - |
| 1777789560 | 15° C | 49% | 1009.9 hPa | 0 mm | - | - | - |
| 1777789260 | 14.44° C | 50% | 1009.8 hPa | 0 mm | - | - | - |
| 1777788960 | 14.44° C | 50% | 1009.9 hPa | 0 mm | - | - | - |
| 1777788660 | 13.89° C | 48% | 1009.8 hPa | 0 mm | - | - | - |
| 1777788360 | 14.44° C | 49% | 1009.7 hPa | 0 mm | - | - | - |
| 1777788060 | 14.44° C | 49% | 1009.6 hPa | 0 mm | - | - | - |
| 1777787760 | 14.44° C | 49% | 1009.8 hPa | 0 mm | - | - | - |
| 1777787460 | 14.44° C | 50% | 1009.8 hPa | 0 mm | - | - | - |
| 1777787160 | 14.44° C | 53% | 1009.9 hPa | 0 mm | - | - | - |
| 1777786860 | 13.89° C | 55% | 1009.9 hPa | 0 mm | - | - | - |
| 1777786560 | 13.33° C | 57% | 1009.7 hPa | 0 mm | - | - | - |
| 1777786260 | 12.22° C | 57% | 1009.8 hPa | 0 mm | - | - | - |
| 1777785960 | 12.22° C | 57% | 1009.9 hPa | 0 mm | - | - | - |
| 1777785660 | 12.22° C | 59% | 1009.8 hPa | 0 mm | - | - | - |
| 1777785360 | 11.67° C | 61% | 1009.8 hPa | 0 mm | - | - | - |
| 1777785060 | 11.11° C | 60% | 1009.9 hPa | 0 mm | - | - | - |
| 1777784760 | 11.11° C | 62% | 1009.7 hPa | 0 mm | - | - | - |
| 1777784460 | 10.56° C | 62% | 1009.7 hPa | 0 mm | - | - | - |
| 1777784160 | 10.56° C | 62% | 1009.9 hPa | 0 mm | - | - | - |
| 1777783860 | 10.56° C | 62% | 1010 hPa | 0 mm | - | - | - |
| 1777783560 | 10.56° C | 62% | 1010 hPa | 0 mm | - | - | - |
| 1777783260 | 10° C | 62% | 1010 hPa | 0 mm | - | - | - |
| 1777782960 | 10° C | 62% | 1010 hPa | 0 mm | - | - | - |
* Rain latest hour (hover to see other rain measurements)
** Current wind speed in m/s (hover to see current wind gust speed)